Location: *
(53.9002°N, 27.5624°E)
Time: 08:20:20
(UTC+00:00)

Cosmos 1459 Rocket - Pass Details

Date: 12 November 2019
Orbit: 938 x 999 km, 83.0° (Epoch: 08 December)

Event Time Altitude Azimuth Distance (km) Brightness Sun altitude
Rises 14:50:44 0° 348° (NNW) 3,720 6.9 -5.4°
Reaches altitude 10° 14:53:16 10° 347° (NNW) 2,772 6.3 -5.7°
Maximum altitude 14:59:37 74° 264° (W) 1,040 4.4 -6.6°
Drops below altitude 10° 15:05:58 10° 180° (S) 2,764 6.7 -7.4°
Sets 15:08:29 0° 179° (S) 3,707 7.3 -7.8°
